Погода Кривой Рог

Погода Кривой Рог : погода сейчас, прогноз погоды и архив. Всё, что Вы хотите узнать о погоде Кривой Рог!

Поиск расширенной информации на нашем сайте:

Другие новости

Новости СМИ2

Главная страница сайта

Новости сайта

03.07.2017

Напоминаем, что на нашем специализированном сайте Метеоцентр.Азия вы можете получить высокодетализированные автоматические прогнозы погоды по пунктам России, СНГ и мира в авиационном формате (включающие направление и скорость ветра, видимость, явления погоды, количество и форму облачности, нижнюю и верхнюю границу облачности).

Рекомендуем: статья полностью

Погода Кривой Рог - сегодня

Время (UTC), дата Ветер
(°,м/с) 
Видим.   Явления Облачность Т
(°С)
Тd
(°С)
f(%) Тe
(°С)
Pmin
(гПа)
dP
(гПа)
Po
(мм)
O2
(г/м3)
Тmin Tmax R s Состояние
почвы
15 17.10.17 350 (С) 10 км    10/10 800 м 
[Sc]
+15 +10 72 +15  1021.8  1.6  755  287           
18 17.10.17 330 (СЗ) 10 км    4/0 средняя 
[Ac trans]
+11.6 +9 84 +12  1022.8  0.8  756  291           
21 17.10.17 330 (СЗ) 2600 м  дымка  ясно 
+10.5 +9.5 94 +11  1023.2  0.3  756  292           
00 18.10.17 тихо ()   <0100 м  туман  ясно 
+8.2 +8.2 100 +8  1023.6  0.3  756  294           
03 18.10.17 тихо ()   <0100 м  туман  ясно 
+6.9 +6.9 100 +7  1023.5  -0.2  756  296           
06 18.10.17 тихо ()   <0100 м  туман  ?/?  
+7.6 +7.6 100 +8  1023.9  0.5  757  295  +6.8         
09 18.10.17 210 (ЮЗ) 10 км  {туман}  4/0 верхняя 
[Ci fib]
+15 +11.3 79 +18  1022.7  -0.8  756  287           
12 18.10.17 240 (ЮЗ) 10 км  {туман}  9/0 верхняя 
[Ci fib]
+18.6 +10.4 59 +21  1020.8  -1.7  755  283           
15 18.10.17 230 (ЮЗ) 10 км    6/0 верхняя 
[Ci fib]
+14.9 +9.3 69 +15  1020.1  -0.9  754  286           
18 18.10.17 210 (ЮЗ) 10 км    ясно 
+11.5 +8.2 80 +11  1019.8  -0.5  754  290    +18.6       
21 18.10.17 220 (ЮЗ) 10 км    ясно 
+10.1 +7.8 86 +10  1019.5  -0.3  753  291           
00 19.10.17 190 (Ю) 0600 м  туман  ясно 
+8.8 +8.8 100 +8  1018.8  -0.8  753  292           
03 19.10.17 240 (ЮЗ) 0100 м  туман  ?/?  
+9 +9 100 +8  1018.3  -0.5  752  292           
06 19.10.17 250 (З) 0700 м  морось{туман}  ?/?  
+11.6 +11.6 100 +14  1018.4  0.3  753  289  +8  -1.2  0.3     
09 19.10.17 250 (З) 3900 м  дымка{морось, туман}  10/10 180 м 
[St]
+12.9 +12.3 96 +16  1018.7  0.3  753  287           
12 19.10.17 230 (ЮЗ) 10 км  {морось, туман}  4/0 верхняя 
[Ci fib]
+19.2 +13 67 +25  1016.9  -1.4  752  281      0.0     
15 19.10.17 210 (ЮЗ) 10 км    10/0 средняя, верхняя 
[Ac trans|Ci fib]
+15.6 +9.6 67 +17  1016.4  -0.7  751  285           
18 19.10.17 210 (ЮЗ) 10 км    4/0 верхняя 
[Ci fib]
+12.9 +8.7 76 +13  1016.7  0.2  752  288    +20.1  0.0     
21 19.10.17 210 (ЮЗ) 10 км    ясно 
+10.9 +9.9 94 +12  1017.2  0.3  752  289           
00 20.10.17 220 (ЮЗ) 0200 м  слаб. морось{туман}  ?/?  
+11.2 +11.2 100 +13  1016.7  -0.4  751  289      0.0     
03 20.10.17 250 (З) 3600 м  дымка{морось, туман}  10/10 180 м 
[St]
+12.4 +11.5 94 +16  1017  0.3  752  288           
06 20.10.17 240 (ЮЗ) 10 км  {морось, туман}  10/10 200 м 
[St]
+12.8 +11.7 93 +16  1017.5  0.6  752  287  +9.5    0.0     
09 20.10.17 290 (З) 10 км    10/10 300 м 
[St]
+14.1 +11.7 85 +18  1018.1  0.6  753  286           
12 20.10.17 300 (СЗ) 10 км    10/10 330 м 
[St]
+14 +11.8 87 +19  1018  -0.1  752  286           
15 20.10.17 030 (СВ) 1400 м  слаб. морось  10/10 120 м 
[St]
+10.9 +10.5 97 +13  1018.7  0.5  753  290           
Время (UTC), дата Ветер
(°,м/с) 
Видим.   Явления Облачность Т
(°С)
Тd
(°С)
f(%) Тe
(°С)
Pmin
(гПа)
dP
(гПа)
Po
(мм)
O2
(г/м3)
Тmin Tmax R s Состояние
почвы

Для получения пояснительной информации подведите курсор к названию столбца.

ПОГОДА Кривой Рог - архив

Всё, что Вы хотите узнать о погоде Кривой Рог - удобно и подробно!

Выберите нужную дату (начиная с 1 января 2015* года) и нажмите кнопку "Найти".
Будут отображены архивные сводки погоды по пункту Кривой Рог, начиная с указанной даты.


Отображать данные в формате CSV (для использования в таблицах Excel)


Внимание! Наш архив погоды предназначен исключительно для личного некоммерческого использования в познавательных целях. Если Вам необходимы официальные справки о состоянии погоды (для производственных, юридических, коммерческих и т.п. целей), обращайтесь в органы Росгидромета.

*Примечание: данная дата относится к архиву по метеостанциям СССР (Россия, СНГ, Балтия).
Архив по метеостанциям Зарубежной Европы и Азии (кроме Китая) хранится 10 дней, по другим регионам земного шара (Китай, Африка, Америка, Австралия, Океания) - 1 день.

Кривой Рог - район местоположения метеостанции


Название, широта, долгота, высота метеостанции:
Кривой Рог (Лозоватка) 48°ш. 33.2°д. 124 м над ур. моря [Украина]

Дополнительная информация

В oтличие oт бoльшинства пoгoдных сайтoв мы публикуем пoдрoбную метеoинфoрмацию в детальнoм прoфессиoнальнoм фoрмате.

Характеристики температуры и влажнoсти вoздуха измеряются на высoте 2 м в тени вдали oт зданий и деревьев.
Скoрoсть ветра измеряется на высoте 10 м (на урoвне рoста челoвека скoрoсть ветра ниже в 1.5-2 раза). Если метеoстанция нахoдится в гoрoде или в лесу, тo скoрoсть ветра занижена на 2-4 м/с пo сравнению с oткрытым местoм. Скoрoсть ветра над акватoриями крупных рек и oзёр, а также на вершинах хoлмoв на 2-5 м/с выше, чем в oбычных услoвиях.
Атмoсфернoе давление в разных тoчках местнoсти мoжет значительнo oтличаться oт давления на метеoстанции, в зависимoсти oт услoвий рельефа (при пoдъёме на 10 м давление пoнижается примернo на 1 мм рт.ст.).